Regional Weather Roundup
Issued by NWS

Home | Current Version | Previous Version | Text Only | Print | Product List | Glossary On
Versions: 1 2 3 4 5 6 7 8 9 10 11 12 13 14 15 16 17 18 19 20 21 22 23 24 25 26 27 28 29 30 31 32 33 34 35 36 37 38 39 40 41 42 43 44 45 46 47 48 49 50
000
ASUS46 KSEW 302110
RWRWA

WASHINGTON REGIONAL WEATHER ROUNDUP
NATIONAL WEATHER SERVICE SEATTLE WA
100 PM PST FRI JAN 30 2015

NOTE:"FAIR" INDICATES FEW OR NO CLOUDS BELOW 12,000 FEET WITH NO
SIGNIFICANT WEATHER AND/OR OBSTRUCTIONS TO VISIBILITY.

WAZ505-507>509-302200-
SEATTLE, TACOMA, EVERETT, AND VICINITY

CITY           SKY/WX    TMP DP  RH WIND       PRES   REMARKS
EVERETT        SUNNY     47  39  74 NW3       30.27F
BOEING FIELD   MOSUNNY   47  39  74 CALM      30.29F HAZE
RENTON         FOG       40  40 100 CALM      30.29F VSB 1/4
SEATAC AIRPORT MOSUNNY   43  39  86 W6        30.28F FOG
JBLM-MCCHORD   CLOUDY    45  45 100 W2        30.27F
PUYALLUP       FOG       41  41 100 CALM      30.27F VSB 1/2
BREMERTON      SUNNY     46  43  87 CALM      30.28F
JBLM-FT LEWIS  CLOUDY    43  43 100 E1        30.27F
TACOMA NARROWS CLOUDY    43  40  89 NW5       30.28F FOG
$$

WAZ001-503-506-510-514-515-302200-
NORTH INTERIOR

CITY           SKY/WX    TMP DP  RH WIND       PRES   REMARKS
BELLINGHAM     SUNNY     50  38  63 CALM      30.28F
FRIDAY HARBOR  SUNNY     49  41  74 E5        30.29F
EASTSOUND      SUNNY     45  39  81 CALM      30.27F
PORT ANGELES   SUNNY     48  42  80 NE5       30.28F
NAS WHIDBEY    MOSUNNY   49  40  71 SW5       30.29F
ARLINGTON      SUNNY     48  39  71 CALM      30.28F
BURLINGTON     SUNNY     48 N/A N/A S3        30.30F
$$

WAZ020-022-039-040-504-511-512-302200-
SOUTHWEST INTERIOR

CITY           SKY/WX    TMP DP  RH WIND       PRES   REMARKS
SHELTON        CLOUDY    40  39  97 CALM      30.25F FOG
OLYMPIA        FOG       40  39  97 CALM      30.28F VSB 1/4
CHEHALIS       CLOUDY    41  41 100 VRB3      30.28F FOG
KELSO          PTSUNNY   43  39  87 S3        30.29F
VANCOUVER      SUNNY     46  37  71 SW6       30.25F
SCAPPOOSE, OR    N/A     45  40  82 CALM      30.25F
PORTLAND, OR   MOSUNNY   47  38  71 NW7       30.26F
$$

WAZ021-516-517-302200-
WASHINGTON COAST

CITY           SKY/WX    TMP DP  RH WIND       PRES   REMARKS
FORKS          MOSUNNY   52  44  74 CALM      30.28F
HOQUIAM        SUNNY     49  43  80 SE6       30.26F
ASTORIA, OR    SUNNY     53  42  66 N3        30.24F
$$

WAZ019-023-024-040-518-519-302200-
CASCADE MOUNTAINS AND COLUMBIA GORGE

CITY           SKY/WX    TMP DP  RH WIND       PRES   REMARKS
TROUTDALE, OR  SUNNY     48  35  60 E20G29    30.23F
THE DALLES, OR CLOUDY    42  33  70 E7        30.41F
$$

WAZ026-027-041>044-520-521-302200-
EAST SLOPES

CITY           SKY/WX    TMP DP  RH WIND       PRES   REMARKS
OMAK           CLOUDY    37  31  78 S8        30.36F
WENATCHEE      CLOUDY    36  30  79 CALM      30.36F
ELLENSBURG     CLOUDY    37  31  78 S3        30.33F
YAKIMA         CLOUDY    39  32  76 SE3       30.38F
$$

WAZ028-034-035-302200-
COLUMBIA BASIN

CITY           SKY/WX    TMP DP  RH WIND       PRES   REMARKS
EPHRATA        CLOUDY    37  34  89 CALM      30.35F
MOSES LAKE     CLOUDY    37  34  89 SE3       30.37F
PASCO          CLOUDY    40  36  86 SW3       30.41F
HERMISTON, OR  CLOUDY    39  35  86 CALM      30.39F FOG
$$

WAZ036>038-302200-
NORTHEAST WASHINGTON

CITY           SKY/WX    TMP DP  RH WIND       PRES   REMARKS
SPOKANE GEIGER FOG       30  29  96 CALM      30.32F VSB 1/4
SPOKANE FELTS  CLOUDY    32  29  88 CALM      30.35F FOG
FAIRCHILD AFB  FOG       28  28 100 CALM      30.31F VSB 1/2
COEURDALENE,ID CLOUDY    34  28  80 CALM      30.31F
DEER PARK      CLOUDY    29  28  96 CALM      30.34F
$$

WAZ029>033-302200-
SOUTHEAST WASHINGTON

CITY           SKY/WX    TMP DP  RH WIND       PRES   REMARKS
PULLMAN        CLOUDY    32  32 100 CALM      30.33F FOG
LEWISTON, ID   CLOUDY    38  35  89 CALM      30.36F
WALLA WALLA    CLOUDY    37  33  85 S6        30.38F
PENDLETON, OR  CLOUDY    35  31  85 S3        30.36F
$$


USA.gov is the U.S. government's official web portal to all federal, state and local government web resources and services.